Weather Roundup
Issued by NWS Chicago, IL

Home | Current Version | Previous Version | Graphics & Text | Print | Product List | Glossary On
Versions: 1 2 3 4 5 6 7 8 9 10 11 12 13 14 15 16 17 18 19 20 21 22 23 24 25 26 27 28 29 30 31 32 33 34 35 36 37 38 39 40 41 42 43 44 45 46 47 48 49 50
000
NZUS59 KLOT 191006
HRRLOT

CHICAGO AREA WEATHER ROUNDUP
NATIONAL WEATHER SERVICE CHICAGO/ROMEOVILLE IL
500 AM CDT FRI SEP 19 2014

NOTE: "FAIR" INDICATES FEW OR NO CLOUDS BELOW 12,000 FEET WITH NO
SIGNIFICANT WEATHER AND/OR OBSTRUCTIONS TO VISIBILITY.

* THESE STATIONS ARE NOT UNDER NWS QUALITY CONTROL. THEY ALSO MAY NOT
  REPORT WEATHER SUCH AS PRECIPITATION OR FOG.

ILZ005-006-012>014-019>023-191100-
NORTHEAST ILLINOIS

CITY           SKY/WX    TMP DP  RH WIND       PRES   REMARKS
OHARE          CLEAR     54  51  90 S7        30.13F
MIDWAY         CLEAR     59  51  75 SE8       30.14S
AURORA         CLEAR     49  46  90 CALM      30.14F FOG
LANSING*       CLEAR     54  50  88 SE7       30.16R
JOLIET*        CLEAR     53  49  84 SE3       30.15S
WAUKEGAN       CLEAR     58  54  86 SE7       30.14R
DUPAGE AIRPORT CLEAR     53  50  89 SE6       30.13S
WHEELING       CLEAR     52  49  89 CALM      30.16R
KANKAKEE*      CLEAR     49  47  94 E5        30.16R
MORRIS*        CLEAR     51  51 100 E5        30.13S FOG
LEWIS AIRPORT* CLEAR     52  50  93 SE7       30.14S
NORTHERLY IS     N/A     58  51  78 SE7         N/A
$$

WIZ051-052-058>065-066-070>072-191100-
SOUTHEAST WISCONSIN

CITY           SKY/WX    TMP DP  RH WIND       PRES   REMARKS
MILWAUKEE      PTCLDY    54  52  93 SE3       30.15R FOG
KENOSHA*       CLEAR     55  55 100 SE5       30.16R
RACINE*        CLEAR     59  55  87 S7        30.17R
BURLINGTON     FOG       51  51 100 CALM      30.16R VSB 1/4
WAUKESHA       FOG       48  48 100 CALM      30.16R VSB 1/2
WEST BEND      PTCLDY    46  46 100 CALM      30.15F FOG
$$

INZ001>003-010>013-019-020-191100-
NORTHWEST INDIANA

CITY           SKY/WX    TMP DP  RH WIND       PRES   REMARKS
GARY*          CLEAR     57  52  82 E10       30.16R
MICHIGAN CITY* NOT AVBL
RENSSELAER*    NOT AVBL
VALPARAISO     CLEAR     47  46  97 CALM      30.17S FOG
$$

LMZ740>746-191100-
SOUTHERN LAKE MICHIGAN

STATION/POSITION TIME  SKY/WX   TEMP WIND        PRES    VSBY
                                AIR  DIR/SP/G
                 (UTC)          (F)  (DEG/KT/KT) (MB)    (MI)
HARRISON CRIB    1000            60  160/ 17/ 21   N/A
BURNHAM HARBOR   1000            58  150/  6/ 12   N/A
CALUMET HARBOR   1000            58  150/  5/ 10 1019.6F
BURNS HARBOR     NOT AVBL
MICHIGAN CITY    1000            56  120/ 11/ 17   N/A
$$

ABBREVIATIONS USED IN REMARKS
   TC - TEMPERATURE IN CELSIUS
  WCI - WIND CHILL INDEX
   HX - HEAT INDEX
  VSB - VISIBILITY
$$



USA.gov is the U.S. government's official web portal to all federal, state and local government web resources and services.